This demonstration page uses our WeatherBlox Daily Observations layout. Learn more.

Hourly Observations for May 9, 2016

Temp ( °F °C ) Dew Point ( °F °C ) Humidity (%) Winds ( mph kmh ) Pressure ( in mb ) Visibility ( mi km ) Precip ( " mm )
12:15 am 00:15 Clear 53 11.7 51 10.5 92 92 N 7 11 29.62 1003 10 16.0934 0 0
12:35 am 00:35 Clear 54 12 51 10.5 91 91 N 9 15 29.62 1003 10 16.0934 0 0
12:55 am 00:55 Clear 54 12.1 50 10.2 88 88 N 8 13 29.62 1003 10 16.0934 0 0
1:15 am 01:15 Clear 53 11.8 51 10.5 92 92 NNE 10 17 29.59 1002 10 16.0934 0 0
1:35 am 01:35 Clear 53 11.7 51 10.3 91 91 N 10 17 29.59 1002 10 16.0934 0 0
1:55 am 01:55 Clear 53 11.8 51 10.4 91 91 NNE 9 15 29.53 1000 10 16.0934 0 0
2:15 am 02:15 Clear 53 11.6 50 10.1 91 91 NNE 10 17 29.56 1001 10 16.0934 0 0
2:35 am 02:35 Clear 53 11.5 50 10.1 91 91 NNE 10 17 29.56 1001 10 16.0934 0 0
2:55 am 02:55 Clear 53 11.5 50 10 91 91 NE 6 9 29.56 1001 10 16.0934 0 0
3:15 am 03:15 Clear 52 11 49 9.7 92 92 NE 5 7 29.56 1001 10 16.0934 0 0
3:35 am 03:35 Clear 52 11.1 50 9.9 92 92 NE 8 13 29.56 1001 10 16.0934 0 0
3:55 am 03:55 Clear 52 11.3 49 9.7 90 90 ENE 7 11 29.56 1001 10 16.0934 0 0
4:15 am 04:15 Clear 52 11.1 49 9.6 91 91 NNE 7 11 29.53 1000 10 16.0934 0 0
4:35 am 04:35 Clear 52 11 49 9.5 91 91 ENE 6 9 29.53 1000 10 16.0934 0 0
4:55 am 04:55 Clear 51 10.6 49 9.5 93 93 Calm 29.56 1001 10 16.0934 0 0
5:15 am 05:15 Clear 51 10.4 48 9 91 91 S 3 6 29.56 1001 10 16.0934 0 0
5:35 am 05:35 Clear 50 9.8 48 8.7 93 93 Calm 29.56 1001 10 16.0934 0 0
5:55 am 05:55 Clear 49 9.5 47 8.4 93 93 Calm 29.56 1001 10 16.0934 0 0
6:15 am 06:15 Clear 48 8.9 46 7.9 94 94 Calm 29.56 1001 10 16.0934 0 0
6:35 am 06:35 Sunny 48 8.9 47 8.1 95 95 SE 5 7 29.56 1001 10 16.0934 0 0
6:55 am 06:55 Sunny with Mist and Fog 46 7.9 45 7 94 94 SE 7 11 29.59 1002 5 8.0467 0 0
7:15 am 07:15 Sunny with Mist and Fog 47 8.2 46 7.5 95 95 SE 3 6 29.59 1002 5 8.0467 0 0
7:35 am 07:35 Sunny 49 9.3 48 8.7 96 96 Calm 29.56 1001 7 11.26538 0 0
7:55 am 07:55 Partly Cloudy 52 11.1 51 10.4 96 96 Calm 29.56 1001 10 16.0934 0 0
8:15 am 08:15 Mostly Cloudy 54 12 50 10.2 89 89 E 8 13 29.53 1000 10 16.0934 0 0
8:35 am 08:35 Mostly Cloudy 54 12 51 10.4 90 90 E 6 9 29.53 1000 10 16.0934 0 0
8:55 am 08:55 Mostly Cloudy 55 12.5 51 10.6 88 88 E 7 11 29.53 1000 10 16.0934 0 0
9:15 am 09:15 Cloudy 55 12.6 52 10.9 89 89 Calm 29.53 1000 10 16.0934 0 0
9:35 am 09:35 Cloudy 55 13 52 11.2 89 89 SE 6 9 29.53 1000 10 16.0934 0 0
9:55 am 09:55 Cloudy 56 13.3 53 11.5 89 89 ESE 5 7 29.53 1000 10 16.0934 0 0
10:15 am 10:15 Cloudy 57 13.8 54 12 89 89 ESE 8 13 29.56 1001 10 16.0934 0 0
10:35 am 10:35 Cloudy 58 14.3 54 12.4 88 88 ESE 9 15 29.56 1001 10 16.0934 0 0
10:55 am 10:55 Cloudy 58 14.3 54 12.4 88 88 ESE 8 13 29.56 1001 10 16.0934 0 0
11:15 am 11:15 Cloudy 58 14.5 55 12.8 90 90 ESE 7 11 29.56 1001 10 16.0934 0 0
11:35 am 11:35 Cloudy 59 15.1 56 13.4 90 90 ESE 6 9 29.53 1000 10 16.0934 0 0
11:55 am 11:55 Cloudy 60 15.4 56 13.5 89 89 ESE 8 13 29.5 999 10 16.0934 0 0
12:15 pm 12:15 Cloudy with Nearby Thunderstorms 61 16 57 13.9 87 87 ESE 3 6 29.5 999 10 16.0934 0 0
12:35 pm 12:35 Cloudy 61 16.1 57 13.7 86 86 Calm 29.5 999 10 16.0934 0 0
12:55 pm 12:55 Cloudy 62 16.5 57 14 85 85 Calm 29.5 999 10 16.0934 0 0
1:15 pm 13:15 Mostly Cloudy 64 17.5 58 14.4 82 82 Calm 29.5 999 10 16.0934 0 0
1:35 pm 13:35 Mostly Cloudy 65 18.3 58 14.2 77 77 Calm 29.5 999 10 16.0934 0 0
1:55 pm 13:55 Mostly Cloudy 66 18.7 58 14.7 78 78 NNE 3 6 29.5 999 10 16.0934 0 0
2:15 pm 14:15 Mostly Cloudy 66 18.7 58 14.5 77 77 N 7 11 29.5 999 10 16.0934 0 0
2:35 pm 14:35 Partly Cloudy 67 19.5 59 15.1 76 76 N 7 11 29.47 998 10 16.0934 0 0
2:55 pm 14:55 Partly Cloudy 66 18.9 58 14.6 76 76 NNE 7 11 29.47 998 10 16.0934 0 0
3:15 pm 15:15 Partly Cloudy 67 19.3 59 14.8 75 75 NE 5 7 29.47 998 10 16.0934 0 0
3:35 pm 15:35 Sunny 68 20 58 14.6 71 71 ENE 7 11 29.47 998 10 16.0934 0 0
3:55 pm 15:55 Partly Cloudy with Nearby Thunderstorms 67 19.6 58 14.2 71 71 ESE 5 7 29.44 997 10 16.0934 0 0
4:15 pm 16:15 Partly Cloudy 68 20.1 57 14.1 69 69 Calm 29.44 997 10 16.0934 0 0
4:35 pm 16:35 Sunny 69 20.7 56 13.2 62 62 Calm 29.44 997 10 16.0934 0 0
4:55 pm 16:55 Sunny 71 21.6 54 12 55 55 SSE 3 6 29.44 997 10 16.0934 0 0
5:15 pm 17:15 Partly Cloudy with Nearby Thunderstorms 72 22.1 53 11.6 51 51 Calm 29.44 997 10 16.0934 0 0
5:35 pm 17:35 Partly Cloudy 65 18.5 56 13.5 73 73 NNE 10 17 29.44 997 10 16.0934 0 0
5:55 pm 17:55 Mostly Cloudy with Light Rain 64 17.7 58 14.2 80 80 ENE 8 13 29.47 998 10 16.0934 0 0
6:15 pm 18:15 Partly Cloudy with Light Rain 63 17.2 58 14.6 85 85 NE 9 15 29.47 998 10 16.0934 0 0
6:35 pm 18:35 Sunny with Light Rain 63 17.1 58 14.7 86 86 ENE 7 11 29.47 998 10 16.0934 0 0
6:55 pm 18:55 Partly Cloudy 63 17.2 58 14.7 85 85 Calm 29.47 998 10 16.0934 0 0
7:15 pm 19:15 Partly Cloudy 65 18.1 59 15 82 82 Calm 29.47 998 10 16.0934 0 0
7:35 pm 19:35 Sunny 65 18.2 58 14.7 80 80 NNE 3 6 29.47 998 10 16.0934 0 0
7:55 pm 19:55 Sunny 64 17.5 58 14.4 82 82 Calm 29.47 998 10 16.0934 0 0
8:15 pm 20:15 Sunny 62 16.7 58 14.6 88 88 Calm 29.47 998 10 16.0934 0 0
8:35 pm 20:35 Sunny 62 16.6 58 14.6 88 88 Calm 29.5 999 10 16.0934 0 0
8:55 pm 20:55 Clear 62 16.4 58 14.2 87 87 Calm 29.53 1000 10 16.0934 0 0
9:15 pm 21:15 Clear 59 15.1 55 13 87 87 NNE 3 6 29.56 1001 10 16.0934 0 0
9:35 pm 21:35 Clear 58 14.6 56 13.2 91 91 Calm 29.56 1001 10 16.0934 0 0
9:55 pm 21:55 Clear 58 14.6 55 13 90 90 E 7 11 29.56 1001 10 16.0934 0 0
10:15 pm 22:15 Clear 58 14.5 55 12.5 88 88 E 6 9 29.59 1002 10 16.0934 0 0
10:35 pm 22:35 Clear 57 14.1 54 12.3 89 89 E 5 7 29.59 1002 10 16.0934 0 0
10:55 pm 22:55 Partly Cloudy 56 13.6 54 12 90 90 ESE 6 9 29.62 1003 10 16.0934 0 0
11:35 pm 23:35 Clear 56 13.5 54 12 91 91 ESE 6 9 29.59 1002 10 16.0934 0 0
11:55 pm 23:55 Clear 55 13 53 11.5 91 91 SE 7 11 29.59 1002 10 16.0934 0 0

Powered by AerisWeather